Немчиновка

Россия / Московская область     55°43′22″N   37°21′52″E
темп.,
°C
ветер,
м/с
пор.,
м/с
влажн.,
%
обл.,
%
осадки,
мм/ч
давл.,
гПа
погр.,
м
18 апреля, вс
вс1800:00+9всв5125260 0.0 1020777
03:00+8всв513595 0.0 1020595
06:00+6всв5136312 0.0 1020593
09:00+8в595473 0.0 1020826
12:00+9вюв5853100 0.2 10211315
15:00+8вюв4874100 2.1 1022903
18:00+7в51279100 0.5 10221166
21:00+8в61175100 0.5 10231046
19 апреля, пн
пн1900:00+8всв4970100 0.0 10231042
03:00+7св51081100 0.2 1023772
06:00+6всв51082100 0.1 1023613
09:00+5всв5987100 0.5 1024834
12:00+6всв41071100 0.4 1024852
15:00+6в6974100 0.7 10241002
18:00+4всв51194100 1.4 1025829
21:00+4всв5118485 1.8 1025939
20 апреля, вт
вт2000:00+4всв5106693 0.1 1024930
03:00+2всв51290100 0.1 1023646
06:00+2всв51296100 1.5 1022587
09:00+3в51296100 1.7 1022618
12:00+4в51295100 0.4 1021701
15:00+6в61179100 0.4 1019900
18:00+5в61387100 0.1 1018863
21:00+6в71582100 1.4 10141189
21 апреля, ср
ср2100:00+5в91888100 4.4 10091204
03:00+3в81896100 12.1 10061110
06:00+4в71693100 2.1 10031032
09:00+6вюв71592100 2.5 1001938
12:00+7вюв71494100 1.0 9991298
15:00+4ююв71294100 1.9 1002949
18:00+4ю71486100 0.1 10031314
21:00+3ююз81495100 0.4 10071127
22 апреля, чт
чт2200:00+3юз61296100 0.3 1010885
03:00+3юз51196100 0.5 1013838
06:00+4юз51192100 0.3 1015793
09:00+6юз4678100 0.3 1018609
12:00+11ююз575781 0.1 10191267
15:00+13юз464687 0.3 10191929
18:00+12ююз24515 0.1 10211062
21:00+9ююз22715 0.1 102222